{"data":{"norad_id":53149,"intl_designator":"2022-083T","name":"STARLINK-4021","alt_names":[],"object_type":"PAYLOAD","status":"ACTIVE","operator":null,"country":"US","launch_date":"2022-07-17","launch_site_code":"AFETR","launch_vehicle":null,"mission":null,"orbit_class":"UNKNOWN","rcs_meters":null,"size_class":null,"mass_kg":null,"dimensions":null,"purposes":["comms"],"wikipedia_slug":null,"has_3d_model":false,"image_url":null,"decayed_at":null,"tle_current":{"epoch":"2026-05-24T20:01:18.889824Z","epoch_age_seconds":85873,"freshness":"FRESH","line1":"1 53149U 22083T   26144.83424641  .00000425  00000+0  44749-4 0  9998","line2":"2 53149  53.2158 182.4958 0001015  78.7532 281.3574 15.08842038212851","mean_motion":15.08842038,"eccentricity":0.0001015,"inclination_deg":53.2158,"raan_deg":182.4958,"arg_perigee_deg":78.7532,"mean_anomaly_deg":281.3574,"bstar":4.4749e-5,"rev_number":21285,"period_min":95.437425769814,"perigee_km":539.03499539323,"apogee_km":540.43932384763,"semimajor_km":6917.8741596204,"source":"CELESTRAK","updated_at":"2026-05-25T13:38:17.319082Z"}}}